AMC-21

Last updated on Jan. 17, 2021, 6:29 a.m. UTC

1 33275U 08038B   21016.66078655  .00000032  00000-0  00000-0 0  9997
2 33275   0.0414 293.1255 0002282  12.6678 283.4713  1.00272326 45664
UTC
Height (km)
Latitude
Longitude
Inclination
Orbital Period
UTC large
Height (km)
Speed (km/s)
/
Latitude / Longitude
Inclination (degrees)
Orbital Period (minutes)
Azimuth
Elevation
Range (km)
Doppler Factor
iOS Compass Heading
iOS Angle

Next 30 passes for location: Hong Kong

Rise time Rise Azimuth (degrees) Set time Set Azimuth (degrees) Duration Max altitude (degrees)

No matching passes for this satellites